SCP
0 0 0 0 0 0 0 0 0 0 0 0 0 0 0 0 0 0 0 0 0 0 1 1 1 -0 -1 -1 -1 -0 -0 -1 -0 1 1 1 1 0 0 0 0 0 0 0
-0 0 0 0 0 0 0 0 0 0 0 0 0 0 0 0 0 0 0 0 0 0 1 1 1 1 1 1 0 1 1 0 0 1 1 0 0 0 0 0 0 0 0 0
-0 0 0 0 -0 0 0 0 -0 0 0 0 0 0 0 0 0 0 0 0 0 0 0 1 1 1 1 2 1 2 1 1 1 1 1 1 0 0 0 0 0 0 0 0
-0 0 -0 0 0 0 0 0 0 0 0 0 0 0 0 1 1 0 0 0 0 0 0 0 0 1 1 2 3 2 1 0 1 1 1 1 0 0 0 0 0 0 0 0
0 0 0 0 0 0 0 0 0 0 0 0 0 0 1 1 1 1 1 0 -0 0 1 0 0 1 2 3 2 3 1 0 1 1 0 0 0 0 0 0 0 0 0 0
0 0 0 0 0 0 0 0 0 1 1 1 0 0 1 1 1 1 1 1 0 -0 0 1 1 1 2 3 3 2 2 1 1 1 1 0 0 0 0 0 0 0 0 0
0 0 0 0 0 0 0 0 1 1 1 1 1 1 1 1 1 1 2 2 1 1 0 2 2 2 2 3 3 2 0 1 2 1 0 0 0 0 0 0 0 0 0 0
0 0 0 0 0 0 0 0 1 1 1 0 0 1 1 1 2 2 2 2 2 1 3 3 4 5 3 2 2 1 1 2 1 0 0 0 0 0 0 0 0 0 0 0
0 0 0 0 0 0 0 0 0 1 0 0 0 0 0 1 1 1 1 1 1 2 2 2 2 3 3 2 1 1 2 1 1 1 0 0 0 0 0 0 0 0 0 0
0 0 0 0 0 0 0 0 1 0 0 0 0 0 0 0 1 1 1 1 0 0 0 0 1 2 1 1 2 2 2 1 0 0 0 0 0 0 0 0 0 0 0 0
0 0 0 0 0 0 0 0 0 0 0 0 0 0 0 0 0 0 0 0 0 0 0 0 1 1 1 1 2 2 1 1 0 0 0 0 0 0 0 0 0 0 0 0
0 0 0 0 0 0 0 0 0 0 0 0 0 0 0 1 0 0 -0 -0 -0 0 0 0 0 1 1 2 2 2 1 1 0 0 0 0 0 0 0 0 0 0 0 0
0 0 0 0 0 0 0 0 0 0 0 0 0 0 0 0 1 1 0 -0 0 -0 0 0 0 1 1 1 1 1 1 0 0 0 0 0 0 0 0 0 0 0 0 0
-0 0 0 0 0 0 0 0 0 0 0 0 0 0 0 0 0 0 1 1 2 0 0 0 0 0 0 0 1 1 1 0 0 0 0 0 0 0 0 0 0 0 0 0
0 0 0 0 0 0 0 0 0 0 0 0 0 0 0 0 0 0 0 0 1 1 1 1 1 1 1 0 1 1 1 0 0 0 0 0 0 0 0 0 0 0 0 0
0 0 0 0 0 0 0 0 0 0 0 0 0 0 0 0 0 0 0 0 0 1 0 1 1 1 1 1 1 1 1 0 0 0 0 0 0 0 0 0 0 0 0 0
0 0 0 0 0 0 0 0 0 0 0 0 0 0 0 0 0 0 0 0 0 0 0 1 1 2 1 1 1 2 1 0 0 0 0 0 0 0 0 0 0 0 0 0
0 0 0 0 0 0 0 0 0 0 0 0 0 0 0 0 0 1 1 1 1 1 1 1 2 3 2 2 2 2 1 1 0 0 0 0 0 0 0 0 0 0 0 0
0 0 0 0 0 0 0 -0 0 0 1 0 0 0 0 0 0 1 1 2 1 2 2 3 1 2 2 1 1 1 1 0 0 0 0 0 0 0 0 -0 0 0 -0 0
0 0 0 0 0 0 0 0 -0 0 1 0 0 0 0 0 0 1 1 1 1 1 2 1 1 1 1 0 0 0 0 0 0 0 0 0 0 0 0 -0 -0 0 -0 0
0 0 0 0 0 0 0 0 0 0 0 0 0 0 0 0 0 1 0 1 1 0 0 0 1 1 0 0 0 0 0 0 0 0 0 0 0 -0 -0 0 0 -0 -0 0
0 0 0 -0 0 0 0 0 0 0 0 0 0 0 0 0 0 0 0 0 0 0 0 -0 0 0 0 0 0 0 0 0 0 0 0 0 -0 0 -0 -0 0 0 0 0
-0 -0 -0 0 0 0 0 0 0 0 0 0 0 0 0 0 0 0 0 0 0 -0 -0 0 -0 -0 -0 0 0 0 0 0 -0 -0 -0 -0 -0 0 -0 -0 -0 0 0 0
-0 -0 0 -0 -0 0 0 0 0 0 0 0 0 0 0 0 0 0 0 0 0 0 0 0 0 -0 0 0 0 0 -0 -0 0 0 0 0 -0 -0 -0 0 0 0 0 0
0 -0 -0 0 0 0 0 0 0 0 0 0 0 0 0 0 0 0 0 0 -0 -0 -0 0 0 -0 -0 0 0 -0 0 0 0 0 0 -0 -0 0 -0 0 0 0 0 0
-0 -0 0 0 0 0 0 0 0 -0 0 0 0 0 0 0 0 0 0 0 -0 -0 0 0 0 -0 0 -0 -0 -0 0 -0 -0 -0 -0 -0 0 0 0 0 0 0 0 0
0 0 0 0 0 0 0 0 -0 0 0 0 0 0 0 0 -0 0 0 0 0 -0 -0 -0 -0 -0 0 0 0 0 -0 0 -0 -0 -0 -0 0 0 0 0 0 0 0 0
Wind_Speed_500mb
36 41 44 39 39 35 33 34 35 38 42 35 31 16 23 15 21 23 24 29 39 47 59 65 69 70 70 63 65 65 68 61 58 52 51 50 45 42 36 33 31 27 24 21
34 36 39 49 50 44 43 42 37 35 32 37 33 11 13 19 23 27 29 28 35 45 55 62 65 67 63 66 69 69 70 60 57 60 53 50 46 43 38 34 31 27 25 24
34 33 31 34 42 44 44 46 47 30 26 6 14 21 20 20 15 19 22 25 30 46 53 57 58 57 57 63 65 66 68 64 66 62 57 54 48 42 39 36 30 28 27 28
27 28 34 35 32 33 35 32 36 30 19 23 17 26 28 11 18 26 25 23 27 35 49 53 52 55 55 60 69 70 71 74 71 68 63 57 49 49 46 38 31 28 29 30
25 29 34 34 29 22 26 33 31 41 11 17 25 36 4 15 23 26 29 25 22 27 37 46 49 55 60 66 70 76 82 81 75 69 63 58 56 53 47 40 34 34 32 32
25 29 33 26 16 15 18 25 19 32 19 19 31 22 21 31 30 29 26 20 16 18 32 40 45 53 64 69 82 83 86 85 73 65 61 56 58 56 49 38 35 31 30 30
24 25 31 22 14 7 21 7 19 19 17 21 17 17 25 29 30 29 24 21 10 11 26 36 44 51 60 69 77 80 84 76 68 68 62 54 57 55 48 45 40 39 34 32
24 31 38 15 15 17 16 15 15 15 19 21 21 24 26 29 29 27 26 19 12 4 10 25 38 54 58 65 73 80 79 73 73 65 59 62 64 60 51 45 38 43 39 33
33 25 5 10 10 19 22 23 20 13 24 22 32 27 26 31 30 25 25 19 10 5 10 16 37 50 56 71 77 71 72 68 69 66 65 63 59 51 46 41 36 41 39 36
33 33 41 43 33 33 25 33 19 23 26 26 27 32 40 29 33 27 23 17 15 13 16 21 33 45 58 64 68 76 71 62 60 62 56 51 53 48 41 41 40 38 36 36
36 35 42 50 45 41 42 19 17 27 29 32 34 33 34 34 31 27 17 17 13 12 15 18 32 48 48 62 73 63 66 64 63 53 52 45 43 44 39 37 40 37 36 33
33 40 44 43 47 46 50 41 31 36 42 34 32 36 37 37 34 34 25 19 16 12 16 23 28 42 48 62 65 68 63 65 55 51 45 43 41 37 43 38 46 45 43 38
54 55 57 58 53 57 59 56 57 50 51 40 41 38 33 35 28 22 28 28 25 22 20 22 26 43 56 64 65 69 61 46 45 44 47 46 44 42 43 55 54 59 53 51
68 66 71 69 60 59 55 56 53 50 43 43 42 39 35 38 31 24 29 29 29 25 24 25 20 39 52 56 67 52 48 42 42 56 51 46 45 42 38 40 45 51 63 60
41 45 51 52 54 59 58 60 66 52 45 40 39 40 35 36 37 33 30 32 29 29 29 29 30 35 49 52 66 56 47 44 50 57 48 45 43 40 36 35 34 35 37 55
36 40 42 45 47 48 47 55 62 64 54 49 47 41 38 35 37 38 35 36 32 33 38 36 38 36 45 53 63 56 50 51 59 54 45 43 38 35 35 34 32 35 36 34
32 34 35 38 41 45 46 48 52 60 60 50 48 38 37 36 37 40 40 35 33 35 35 36 38 39 46 51 51 48 58 60 71 52 43 38 35 34 33 32 33 34 32 34
24 22 29 37 43 47 45 41 43 46 47 43 35 28 32 37 38 39 37 30 28 29 28 30 37 48 56 56 62 65 61 70 63 48 44 40 33 28 29 30 29 30 30 34
13 19 26 26 35 50 43 45 50 41 25 17 17 28 35 37 37 36 32 31 28 24 22 29 43 46 53 56 48 54 55 63 67 62 60 53 44 26 28 31 31 33 32 36
17 27 22 32 34 42 51 48 37 52 22 13 23 30 33 33 31 31 34 28 21 17 22 26 20 28 35 41 49 60 69 68 74 65 53 32 25 32 45 43 38 32 31 31
20 24 27 38 56 48 51 47 38 38 28 28 31 34 36 31 29 36 31 20 20 21 26 38 48 47 47 49 67 76 69 66 67 49 36 36 40 47 40 38 35 33 31 29
31 40 50 54 51 52 57 49 38 35 35 33 34 35 33 30 38 33 23 19 20 22 32 34 41 67 62 77 81 74 65 64 44 33 30 41 41 33 35 33 32 29 30 25
80 78 69 67 73 53 51 48 40 38 37 35 37 40 31 31 29 23 14 7 10 27 35 21 28 67 83 74 64 59 50 39 33 33 39 37 35 33 32 31 28 30 30 27
83 80 76 70 48 51 54 44 38 35 34 35 42 30 22 23 19 19 12 20 21 23 8 19 36 45 56 64 60 47 41 43 42 43 39 34 33 36 34 29 22 18 22 21
73 78 68 48 48 50 42 35 33 33 32 35 18 16 20 23 29 21 22 30 26 22 33 40 47 47 40 38 43 43 38 38 36 32 31 33 34 25 21 17 19 23 23 25
50 49 35 36 36 30 27 27 24 23 22 13 13 18 24 24 17 23 30 32 35 36 39 41 41 32 29 29 30 31 31 31 30 27 31 25 20 16 18 19 19 21 27 32
12 19 25 26 27 25 22 21 21 20 19 17 18 29 32 33 32 34 38 40 37 32 33 32 27 22 22 24 26 28 27 26 26 18 17 13 13 15 19 23 24 28 29 37
Wind_Direction_500mb
291 295 298 289 287 283 278 280 283 296 299 303 302 347 15 338 306 312 287 253 220 212 199 198 198 196 194 194 191 190 190 187 189 185 185 187 197 200 203 210 216 216 212 199
269 272 273 280 280 278 273 274 275 279 280 282 294 331 315 318 317 308 294 266 233 215 206 204 203 198 193 189 189 187 184 182 184 186 185 198 194 203 209 207 210 209 199 189
275 288 290 275 257 257 269 274 274 268 278 360 313 319 323 307 321 311 312 281 253 224 216 208 205 198 195 187 185 185 179 184 187 188 190 195 197 205 202 204 209 203 190 183
277 276 269 272 298 282 294 291 302 298 310 309 332 293 287 91 337 316 310 293 265 240 219 211 207 200 192 187 183 184 183 191 194 190 191 196 200 198 196 201 204 193 188 187
266 260 271 274 269 286 273 270 286 289 284 322 320 308 173 20 342 327 318 304 278 240 222 211 205 194 189 187 184 186 191 192 191 188 193 197 196 192 194 196 194 189 190 188
256 272 278 305 3 23 327 278 293 5 17 357 324 295 45 347 347 344 341 330 303 240 210 202 199 191 188 188 193 193 195 191 189 186 194 196 196 197 197 200 193 177 188 190
245 256 268 282 307 14 266 331 3 354 350 343 343 335 327 338 343 348 345 351 336 250 212 200 196 192 189 193 196 197 193 188 185 192 198 205 200 201 200 188 182 173 187 189
247 254 262 5 315 250 342 330 354 327 333 326 323 328 344 342 342 348 352 2 357 253 198 191 190 194 193 194 197 196 191 191 190 195 193 195 202 198 189 178 185 176 180 187
282 282 331 314 284 292 307 309 306 327 311 315 313 324 335 339 340 351 354 348 344 274 227 204 209 209 201 202 198 195 189 191 190 189 188 196 197 193 186 184 177 181 183 187
269 264 283 297 296 299 297 278 304 303 305 311 309 316 310 325 339 335 340 335 310 288 266 236 204 202 211 206 202 194 198 189 187 188 194 193 190 193 190 185 183 191 191 193
269 276 277 273 276 282 283 263 279 289 298 302 300 306 309 290 320 323 321 314 311 284 256 241 219 211 213 207 191 188 195 188 190 185 188 189 184 193 186 193 191 192 196 197
272 281 287 289 294 299 298 291 270 289 293 294 296 297 304 308 285 297 295 287 305 290 266 239 222 218 212 201 194 193 190 191 183 192 185 185 185 191 183 199 196 195 196 195
265 267 268 270 273 279 280 278 279 282 279 283 286 286 286 285 276 279 294 271 271 311 293 266 225 211 199 200 201 196 193 184 186 189 184 190 192 194 193 198 204 199 198 196
276 278 274 273 275 277 277 277 273 265 258 269 279 271 266 268 279 269 270 273 271 279 290 281 231 207 214 213 201 198 199 210 206 188 190 195 197 198 199 202 203 208 205 204
271 268 271 276 277 274 272 277 275 260 256 268 274 266 263 267 269 272 278 275 267 251 249 256 252 217 214 213 203 199 200 208 198 187 192 199 197 195 199 200 199 204 203 209
280 281 280 279 278 276 275 273 276 278 261 265 265 261 261 265 269 273 274 277 272 258 239 233 243 243 223 213 206 203 199 199 190 193 193 192 192 197 200 200 199 196 198 204
277 279 288 289 285 274 270 276 275 262 264 256 254 257 261 264 270 276 278 275 266 250 234 232 230 231 238 207 198 207 212 193 189 181 185 189 193 195 199 200 202 202 199 203
279 294 295 296 294 291 276 280 288 258 249 246 252 260 265 267 270 274 276 269 254 244 237 233 236 230 235 232 217 216 204 194 180 182 179 179 184 182 199 195 204 209 203 207
280 309 308 303 298 296 288 273 277 300 255 223 260 269 271 271 273 275 269 258 251 241 236 234 238 235 237 237 225 204 191 180 179 181 179 171 174 180 187 212 210 213 213 201
279 319 325 323 315 306 292 275 283 280 278 282 272 279 286 279 273 270 251 243 236 232 235 240 250 252 259 240 206 193 184 186 182 188 182 176 194 188 210 207 215 211 219 213
263 294 310 314 311 298 295 284 287 293 290 276 281 285 289 280 267 253 252 229 247 263 263 260 256 247 242 227 203 197 196 189 188 186 181 174 197 198 207 209 212 218 220 223
278 287 295 307 293 287 284 286 275 277 281 284 287 287 281 269 259 254 231 237 273 313 302 265 255 235 223 204 195 195 186 177 173 174 158 192 199 203 206 207 208 214 220 225
283 290 289 286 285 274 272 277 271 274 281 283 284 285 273 252 249 218 229 264 47 15 330 260 223 184 187 182 170 159 157 179 164 166 183 196 199 197 205 211 217 225 225 211
283 276 274 281 266 252 255 260 265 270 275 279 287 274 241 224 192 188 192 134 107 88 360 161 163 166 155 150 150 154 156 154 160 188 186 188 198 201 213 209 201 216 225 227
268 273 277 260 240 238 244 254 258 263 273 282 255 223 199 210 192 180 176 162 150 136 127 130 135 134 130 133 133 141 158 178 178 172 175 190 196 196 209 216 227 222 226 233
280 272 249 225 215 216 225 239 241 265 269 228 208 215 208 202 191 175 162 163 154 144 137 136 131 118 139 148 154 158 160 164 176 188 194 195 199 197 212 218 228 235 245 252
235 210 201 184 198 213 223 240 255 250 176 181 131 118 116 123 134 142 138 124 116 134 135 141 134 142 151 152 154 158 162 167 175 182 190 197 214 237 246 252 253 258 262 272
Wind_Speed_850mb
36 41 44 39 39 35 33 34 35 38 42 35 31 16 23 15 21 23 24 29 39 47 59 65 69 70 70 63 65 65 68 61 58 52 51 50 45 42 36 33 31 27 24 21
34 36 39 49 50 44 43 42 37 35 32 37 33 11 13 19 23 27 29 28 35 45 55 62 65 67 63 66 69 69 70 60 57 60 53 50 46 43 38 34 31 27 25 24
34 33 31 34 42 44 44 46 47 30 26 6 14 21 20 20 15 19 22 25 30 46 53 57 58 57 57 63 65 66 68 64 66 62 57 54 48 42 39 36 30 28 27 28
27 28 34 35 32 33 35 32 36 30 19 23 17 26 28 11 18 26 25 23 27 35 49 53 52 55 55 60 69 70 71 74 71 68 63 57 49 49 46 38 31 28 29 30
25 29 34 34 29 22 26 33 31 41 11 17 25 36 4 15 23 26 29 25 22 27 37 46 49 55 60 66 70 76 82 81 75 69 63 58 56 53 47 40 34 34 32 32
25 29 33 26 16 15 18 25 19 32 19 19 31 22 21 31 30 29 26 20 16 18 32 40 45 53 64 69 82 83 86 85 73 65 61 56 58 56 49 38 35 31 30 30
24 25 31 22 14 7 21 7 19 19 17 21 17 17 25 29 30 29 24 21 10 11 26 36 44 51 60 69 77 80 84 76 68 68 62 54 57 55 48 45 40 39 34 32
24 31 38 15 15 17 16 15 15 15 19 21 21 24 26 29 29 27 26 19 12 4 10 25 38 54 58 65 73 80 79 73 73 65 59 62 64 60 51 45 38 43 39 33
33 25 5 10 10 19 22 23 20 13 24 22 32 27 26 31 30 25 25 19 10 5 10 16 37 50 56 71 77 71 72 68 69 66 65 63 59 51 46 41 36 41 39 36
33 33 41 43 33 33 25 33 19 23 26 26 27 32 40 29 33 27 23 17 15 13 16 21 33 45 58 64 68 76 71 62 60 62 56 51 53 48 41 41 40 38 36 36
36 35 42 50 45 41 42 19 17 27 29 32 34 33 34 34 31 27 17 17 13 12 15 18 32 48 48 62 73 63 66 64 63 53 52 45 43 44 39 37 40 37 36 33
33 40 44 43 47 46 50 41 31 36 42 34 32 36 37 37 34 34 25 19 16 12 16 23 28 42 48 62 65 68 63 65 55 51 45 43 41 37 43 38 46 45 43 38
54 55 57 58 53 57 59 56 57 50 51 40 41 38 33 35 28 22 28 28 25 22 20 22 26 43 56 64 65 69 61 46 45 44 47 46 44 42 43 55 54 59 53 51
68 66 71 69 60 59 55 56 53 50 43 43 42 39 35 38 31 24 29 29 29 25 24 25 20 39 52 56 67 52 48 42 42 56 51 46 45 42 38 40 45 51 63 60
41 45 51 52 54 59 58 60 66 52 45 40 39 40 35 36 37 33 30 32 29 29 29 29 30 35 49 52 66 56 47 44 50 57 48 45 43 40 36 35 34 35 37 55
36 40 42 45 47 48 47 55 62 64 54 49 47 41 38 35 37 38 35 36 32 33 38 36 38 36 45 53 63 56 50 51 59 54 45 43 38 35 35 34 32 35 36 34
32 34 35 38 41 45 46 48 52 60 60 50 48 38 37 36 37 40 40 35 33 35 35 36 38 39 46 51 51 48 58 60 71 52 43 38 35 34 33 32 33 34 32 34
24 22 29 37 43 47 45 41 43 46 47 43 35 28 32 37 38 39 37 30 28 29 28 30 37 48 56 56 62 65 61 70 63 48 44 40 33 28 29 30 29 30 30 34
13 19 26 26 35 50 43 45 50 41 25 17 17 28 35 37 37 36 32 31 28 24 22 29 43 46 53 56 48 54 55 63 67 62 60 53 44 26 28 31 31 33 32 36
17 27 22 32 34 42 51 48 37 52 22 13 23 30 33 33 31 31 34 28 21 17 22 26 20 28 35 41 49 60 69 68 74 65 53 32 25 32 45 43 38 32 31 31
20 24 27 38 56 48 51 47 38 38 28 28 31 34 36 31 29 36 31 20 20 21 26 38 48 47 47 49 67 76 69 66 67 49 36 36 40 47 40 38 35 33 31 29
31 40 50 54 51 52 57 49 38 35 35 33 34 35 33 30 38 33 23 19 20 22 32 34 41 67 62 77 81 74 65 64 44 33 30 41 41 33 35 33 32 29 30 25
80 78 69 67 73 53 51 48 40 38 37 35 37 40 31 31 29 23 14 7 10 27 35 21 28 67 83 74 64 59 50 39 33 33 39 37 35 33 32 31 28 30 30 27
83 80 76 70 48 51 54 44 38 35 34 35 42 30 22 23 19 19 12 20 21 23 8 19 36 45 56 64 60 47 41 43 42 43 39 34 33 36 34 29 22 18 22 21
73 78 68 48 48 50 42 35 33 33 32 35 18 16 20 23 29 21 22 30 26 22 33 40 47 47 40 38 43 43 38 38 36 32 31 33 34 25 21 17 19 23 23 25
50 49 35 36 36 30 27 27 24 23 22 13 13 18 24 24 17 23 30 32 35 36 39 41 41 32 29 29 30 31 31 31 30 27 31 25 20 16 18 19 19 21 27 32
12 19 25 26 27 25 22 21 21 20 19 17 18 29 32 33 32 34 38 40 37 32 33 32 27 22 22 24 26 28 27 26 26 18 17 13 13 15 19 23 24 28 29 37
Wind_Direction_850mb
291 295 298 289 287 283 278 280 283 296 299 303 302 347 15 338 306 312 287 253 220 212 199 198 198 196 194 194 191 190 190 187 189 185 185 187 197 200 203 210 216 216 212 199
269 272 273 280 280 278 273 274 275 279 280 282 294 331 315 318 317 308 294 266 233 215 206 204 203 198 193 189 189 187 184 182 184 186 185 198 194 203 209 207 210 209 199 189
275 288 290 275 257 257 269 274 274 268 278 360 313 319 323 307 321 311 312 281 253 224 216 208 205 198 195 187 185 185 179 184 187 188 190 195 197 205 202 204 209 203 190 183
277 276 269 272 298 282 294 291 302 298 310 309 332 293 287 91 337 316 310 293 265 240 219 211 207 200 192 187 183 184 183 191 194 190 191 196 200 198 196 201 204 193 188 187
266 260 271 274 269 286 273 270 286 289 284 322 320 308 173 20 342 327 318 304 278 240 222 211 205 194 189 187 184 186 191 192 191 188 193 197 196 192 194 196 194 189 190 188
256 272 278 305 3 23 327 278 293 5 17 357 324 295 45 347 347 344 341 330 303 240 210 202 199 191 188 188 193 193 195 191 189 186 194 196 196 197 197 200 193 177 188 190
245 256 268 282 307 14 266 331 3 354 350 343 343 335 327 338 343 348 345 351 336 250 212 200 196 192 189 193 196 197 193 188 185 192 198 205 200 201 200 188 182 173 187 189
247 254 262 5 315 250 342 330 354 327 333 326 323 328 344 342 342 348 352 2 357 253 198 191 190 194 193 194 197 196 191 191 190 195 193 195 202 198 189 178 185 176 180 187
282 282 331 314 284 292 307 309 306 327 311 315 313 324 335 339 340 351 354 348 344 274 227 204 209 209 201 202 198 195 189 191 190 189 188 196 197 193 186 184 177 181 183 187
269 264 283 297 296 299 297 278 304 303 305 311 309 316 310 325 339 335 340 335 310 288 266 236 204 202 211 206 202 194 198 189 187 188 194 193 190 193 190 185 183 191 191 193
269 276 277 273 276 282 283 263 279 289 298 302 300 306 309 290 320 323 321 314 311 284 256 241 219 211 213 207 191 188 195 188 190 185 188 189 184 193 186 193 191 192 196 197
272 281 287 289 294 299 298 291 270 289 293 294 296 297 304 308 285 297 295 287 305 290 266 239 222 218 212 201 194 193 190 191 183 192 185 185 185 191 183 199 196 195 196 195
265 267 268 270 273 279 280 278 279 282 279 283 286 286 286 285 276 279 294 271 271 311 293 266 225 211 199 200 201 196 193 184 186 189 184 190 192 194 193 198 204 199 198 196
276 278 274 273 275 277 277 277 273 265 258 269 279 271 266 268 279 269 270 273 271 279 290 281 231 207 214 213 201 198 199 210 206 188 190 195 197 198 199 202 203 208 205 204
271 268 271 276 277 274 272 277 275 260 256 268 274 266 263 267 269 272 278 275 267 251 249 256 252 217 214 213 203 199 200 208 198 187 192 199 197 195 199 200 199 204 203 209
280 281 280 279 278 276 275 273 276 278 261 265 265 261 261 265 269 273 274 277 272 258 239 233 243 243 223 213 206 203 199 199 190 193 193 192 192 197 200 200 199 196 198 204
277 279 288 289 285 274 270 276 275 262 264 256 254 257 261 264 270 276 278 275 266 250 234 232 230 231 238 207 198 207 212 193 189 181 185 189 193 195 199 200 202 202 199 203
279 294 295 296 294 291 276 280 288 258 249 246 252 260 265 267 270 274 276 269 254 244 237 233 236 230 235 232 217 216 204 194 180 182 179 179 184 182 199 195 204 209 203 207
280 309 308 303 298 296 288 273 277 300 255 223 260 269 271 271 273 275 269 258 251 241 236 234 238 235 237 237 225 204 191 180 179 181 179 171 174 180 187 212 210 213 213 201
279 319 325 323 315 306 292 275 283 280 278 282 272 279 286 279 273 270 251 243 236 232 235 240 250 252 259 240 206 193 184 186 182 188 182 176 194 188 210 207 215 211 219 213
263 294 310 314 311 298 295 284 287 293 290 276 281 285 289 280 267 253 252 229 247 263 263 260 256 247 242 227 203 197 196 189 188 186 181 174 197 198 207 209 212 218 220 223
278 287 295 307 293 287 284 286 275 277 281 284 287 287 281 269 259 254 231 237 273 313 302 265 255 235 223 204 195 195 186 177 173 174 158 192 199 203 206 207 208 214 220 225
283 290 289 286 285 274 272 277 271 274 281 283 284 285 273 252 249 218 229 264 47 15 330 260 223 184 187 182 170 159 157 179 164 166 183 196 199 197 205 211 217 225 225 211
283 276 274 281 266 252 255 260 265 270 275 279 287 274 241 224 192 188 192 134 107 88 360 161 163 166 155 150 150 154 156 154 160 188 186 188 198 201 213 209 201 216 225 227
268 273 277 260 240 238 244 254 258 263 273 282 255 223 199 210 192 180 176 162 150 136 127 130 135 134 130 133 133 141 158 178 178 172 175 190 196 196 209 216 227 222 226 233
280 272 249 225 215 216 225 239 241 265 269 228 208 215 208 202 191 175 162 163 154 144 137 136 131 118 139 148 154 158 160 164 176 188 194 195 199 197 212 218 228 235 245 252
235 210 201 184 198 213 223 240 255 250 176 181 131 118 116 123 134 142 138 124 116 134 135 141 134 142 151 152 154 158 162 167 175 182 190 197 214 237 246 252 253 258 262 272